Tracking 18624 objects as of 1-May-2017
HD Live streaming from Space Station
objects crossing your sky now

INTELSAT 501

Track INTELSAT 501 now!
INTELSAT 501 is classified as:


NORAD ID: 12474
Int'l Code: 1981-050A
Perigee: 36,182.9 km
Apogee: 36,208.7 km
Inclination: 15.1 °
Period: 1,456.7 minutes
Semi major axis: 42566 km
RCS: 3.981 m2 (large)
Launch date: May 23, 1981
Source: International Telecommunications Satellite Organization (ITSO)
Launch site: AIR FORCE EASTERN TEST RANGE (AFETR)
Your satellite tracking list
Your tracking list is empty





NASA's NSSDC Master Catalog

Two Line Element Set (TLE):
1 12474U 81050A   17119.39404300 -.00000109 +00000-0 +00000-0 0  9995
2 12474 015.0926 352.8779 0003031 224.9134 339.8153 00.98854503104779
Source of the keplerian elements: AFSPC